| time (UTC) | temp F | wind direction | speed MPH | gust MPH | rain 1hr in | rain 24hr in | rain mn in | humidity % | barometer mb |
| 20260504195702 | 74 | 267 | 0.0 | 0.0 | 0.00 | 0.00 | 0.00 | 62 | 1015.9 |
| 20260504194902 | 74 | 267 | 0.0 | 0.0 | 0.00 | 0.00 | 0.00 | 62 | 1015.8 |
| 20260504194101 | 74 | 267 | 0.0 | 0.0 | 0.00 | 0.00 | 0.00 | 62 | 1015.9 |
| 20260504193301 | 74 | 267 | 0.0 | 0.0 | 0.00 | 0.00 | 0.00 | 62 | 1015.1 |
| 20260504192501 | 74 | 267 | 0.0 | 0.0 | 0.00 | 0.00 | 0.00 | 62 | 1014.9 |
| 20260504191701 | 74 | 267 | 0.0 | 0.0 | 0.00 | 0.00 | 0.00 | 63 | 1015.0 |
| 20260504190901 | 74 | 267 | 0.0 | 0.0 | 0.00 | 0.00 | 0.00 | 63 | 1014.8 |
| 20260504190100 | 74 | 267 | 0.0 | 0.0 | 0.00 | 0.00 | 0.00 | 62 | 1014.4 |
| 20260504185300 | 75 | 267 | 0.0 | 0.0 | 0.00 | 0.00 | 0.00 | 62 | 1014.4 |
| 20260504184500 | 75 | 267 | 0.0 | 0.0 | 0.00 | 0.00 | 0.00 | 63 | 1014.5 |
| 20260504183700 | 75 | 267 | 0.0 | 0.0 | 0.00 | 0.00 | 0.00 | 63 | 1014.1 |
| 20260504182859 | 75 | 267 | 0.0 | 0.0 | 0.00 | 0.00 | 0.00 | 63 | 1014.1 |
| 20260504182059 | 75 | 267 | 0.0 | 0.0 | 0.00 | 0.00 | 0.00 | 63 | 1014.2 |
| 20260504181259 | 75 | 267 | 0.0 | 0.0 | 0.00 | 0.00 | 0.00 | 63 | 1013.8 |
| 20260504180459 | 75 | 267 | 0.0 | 0.0 | 0.00 | 0.00 | 0.00 | 63 | 1013.7 |
| 20260504175659 | 75 | 267 | 0.0 | 0.0 | 0.00 | 0.00 | 0.00 | 63 | 1013.4 |
| 20260504174858 | 75 | 267 | 0.0 | 0.0 | 0.00 | 0.00 | 0.00 | 62 | 1013.1 |
| 20260504174058 | 75 | 267 | 0.0 | 0.0 | 0.00 | 0.00 | 0.00 | 63 | 1012.8 |
| 20260504173258 | 75 | 267 | 0.0 | 0.0 | 0.00 | 0.00 | 0.00 | 62 | 1012.8 |
| 20260504172458 | 75 | 267 | 0.0 | 0.0 | 0.00 | 0.00 | 0.00 | 63 | 1012.5 |
| 20260504171657 | 75 | 267 | 0.0 | 0.0 | 0.00 | 0.00 | 0.00 | 62 | 1012.5 |
| 20260504170857 | 75 | 267 | 0.0 | 0.0 | 0.00 | 0.00 | 0.00 | 63 | 1012.3 |
| 20260504150854 | 76 | 267 | 0.0 | 0.0 | 0.00 | 0.00 | 0.00 | 63 | 1009.6 |
| 20260504141252 | 76 | 267 | 0.0 | 0.0 | 0.00 | 0.00 | 0.00 | 63 | 1007.6 |
| 20260504140452 | 76 | 267 | 0.0 | 0.0 | 0.00 | 0.00 | 0.00 | 62 | 1007.6 |
| 20260504100446 | 77 | 267 | 0.0 | 0.0 | 0.00 | 0.00 | 0.00 | 66 | 1000.5 |
| 20260504081242 | 78 | 267 | 0.0 | 0.0 | 0.00 | 0.00 | 0.00 | 68 | 996.7 |
| 20260504080442 | 78 | 267 | 0.0 | 0.0 | 0.00 | 0.00 | 0.00 | 69 | 996.2 |
| 20260504045237 | 77 | 267 | 0.0 | 0.0 | 0.00 | 0.00 | 0.00 | 71 | 994.1 |
| 20260504044437 | 77 | 267 | 0.0 | 0.0 | 0.00 | 0.00 | 0.00 | 72 | 993.9 |
| 20260504043637 | 77 | 267 | 0.0 | 0.0 | 0.00 | 0.00 | 0.00 | 72 | 994.1 |
| 20260504042836 | 77 | 267 | 0.0 | 0.0 | 0.00 | 0.00 | 0.00 | 73 | 994.1 |
| 20260504042036 | 77 | 267 | 0.0 | 0.0 | 0.00 | 0.00 | 0.00 | 72 | 994.4 |
| 20260504041236 | 77 | 267 | 0.0 | 0.0 | 0.00 | 0.00 | 0.00 | 74 | 994.3 |
| 20260504040436 | 77 | 267 | 0.0 | 0.0 | 0.00 | 0.00 | 0.00 | 74 | 994.3 |
| 20260504035635 | 77 | 267 | 0.0 | 0.0 | 0.00 | 0.00 | 0.00 | 73 | 994.3 |
| 20260504034835 | 77 | 267 | 0.0 | 0.0 | 0.00 | 0.00 | 0.00 | 75 | 994.6 |
| 20260504034035 | 77 | 267 | 0.0 | 0.0 | 0.00 | 0.00 | 0.00 | 75 | 994.7 |
| 20260504033235 | 77 | 267 | 0.0 | 0.0 | 0.00 | 0.00 | 0.00 | 75 | 994.7 |
| 20260504032435 | 77 | 267 | 0.0 | 0.0 | 0.00 | 0.00 | 0.00 | 75 | 995.1 |
| 20260504031634 | 77 | 267 | 0.0 | 0.0 | 0.00 | 0.00 | 0.00 | 75 | 994.9 |
| 20260504030834 | 77 | 267 | 0.0 | 0.0 | 0.00 | 0.00 | 0.00 | 77 | 995.4 |
| 20260504030034 | 77 | 267 | 0.0 | 0.0 | 0.00 | 0.00 | 0.00 | 78 | 995.3 |
| 20260504025234 | 77 | 267 | 0.0 | 0.0 | 0.00 | 0.00 | 0.00 | 78 | 995.8 |
| 20260504024433 | 77 | 267 | 0.0 | 0.0 | 0.00 | 0.00 | 0.00 | 79 | 995.7 |
| 20260504023633 | 77 | 267 | 0.0 | 0.0 | 0.00 | 0.00 | 0.00 | 79 | 995.8 |
| 20260504022833 | 77 | 267 | 0.0 | 0.0 | 0.00 | 0.00 | 0.00 | 79 | 995.6 |
| 20260504022033 | 77 | 267 | 0.0 | 0.0 | 0.00 | 0.00 | 0.00 | 80 | 995.7 |
| 20260504021233 | 77 | 267 | 0.0 | 0.0 | 0.00 | 0.00 | 0.00 | 79 | 996.1 |
| 20260504020432 | 77 | 267 | 0.0 | 0.0 | 0.00 | 0.00 | 0.00 | 79 | 995.8 |
| 20260504015632 | 77 | 267 | 0.0 | 0.0 | 0.00 | 0.00 | 0.00 | 79 | 995.8 |
| 20260504014832 | 76 | 267 | 0.0 | 0.0 | 0.00 | 0.00 | 0.00 | 79 | 996.1 |
| 20260504014032 | 77 | 267 | 0.0 | 0.0 | 0.00 | 0.00 | 0.00 | 79 | 996.4 |
| 20260504013231 | 76 | 267 | 0.0 | 0.0 | 0.00 | 0.00 | 0.00 | 79 | 996.2 |
| 20260504012431 | 76 | 267 | 0.0 | 0.0 | 0.00 | 0.00 | 0.00 | 78 | 996.4 |
| 20260504011631 | 76 | 267 | 0.0 | 0.0 | 0.00 | 0.00 | 0.00 | 78 | 996.7 |
| 20260504010831 | 76 | 267 | 0.0 | 0.0 | 0.00 | 0.00 | 0.00 | 78 | 996.6 |
| 20260504010031 | 76 | 267 | 0.0 | 0.0 | 0.00 | 0.00 | 0.00 | 78 | 996.7 |
| 20260504005230 | 76 | 267 | 0.0 | 0.0 | 0.00 | 0.00 | 0.00 | 78 | 997.0 |
| 20260504004430 | 76 | 267 | 0.0 | 0.0 | 0.00 | 0.00 | 0.00 | 79 | 996.6 |
| 20260504003630 | 76 | 267 | 0.0 | 0.0 | 0.00 | 0.00 | 0.00 | 78 | 996.9 |
| 20260504002830 | 76 | 267 | 0.0 | 0.0 | 0.00 | 0.00 | 0.00 | 78 | 997.2 |
| 20260504002030 | 76 | 267 | 0.0 | 0.0 | 0.00 | 0.00 | 0.00 | 77 | 996.8 |
| 20260504001229 | 76 | 267 | 0.0 | 0.0 | 0.00 | 0.00 | 0.00 | 78 | 996.9 |
| 20260504000431 | 76 | 267 | 0.0 | 0.0 | 0.00 | 0.00 | 0.00 | 78 | 997.2 |
| 20260503235629 | 76 | 267 | 0.0 | 0.0 | 0.00 | 0.00 | 0.00 | 76 | 996.8 |
| 20260503234829 | 76 | 267 | 0.0 | 0.0 | 0.00 | 0.00 | 0.00 | 78 | 997.4 |
| 20260503234028 | 76 | 267 | 0.0 | 0.0 | 0.00 | 0.00 | 0.00 | 78 | 996.9 |
| 20260503233228 | 76 | 267 | 0.0 | 0.0 | 0.00 | 0.00 | 0.00 | 77 | 997.2 |
| 20260503232428 | 76 | 267 | 0.0 | 0.0 | 0.00 | 0.00 | 0.00 | 78 | 997.1 |
| 20260503231628 | 76 | 267 | 0.0 | 0.0 | 0.00 | 0.00 | 0.00 | 78 | 996.9 |
| 20260503230828 | 76 | 267 | 0.0 | 0.0 | 0.00 | 0.00 | 0.00 | 78 | 997.2 |
| 20260503230027 | 76 | 267 | 0.0 | 0.0 | 0.00 | 0.00 | 0.00 | 78 | 997.1 |
| 20260503225227 | 76 | 267 | 0.0 | 0.0 | 0.00 | 0.00 | 0.00 | 78 | 997.4 |
| 20260503224427 | 76 | 267 | 0.0 | 0.0 | 0.00 | 0.00 | 0.00 | 78 | 997.1 |
| 20260503223627 | 76 | 267 | 0.0 | 0.0 | 0.00 | 0.00 | 0.00 | 78 | 997.1 |
| 20260503222827 | 76 | 267 | 0.0 | 0.0 | 0.00 | 0.00 | 0.00 | 78 | 997.0 |
| 20260503222026 | 76 | 267 | 0.0 | 0.0 | 0.00 | 0.00 | 0.00 | 78 | 997.0 |
| 20260503221226 | 76 | 267 | 0.0 | 0.0 | 0.00 | 0.00 | 0.00 | 79 | 997.1 |
| 20260503220426 | 76 | 267 | 0.0 | 0.0 | 0.00 | 0.00 | 0.00 | 78 | 997.2 |
| 20260503215626 | 76 | 267 | 0.0 | 0.0 | 0.00 | 0.00 | 0.00 | 79 | 996.8 |
| 20260503214825 | 76 | 267 | 0.0 | 0.0 | 0.00 | 0.00 | 0.00 | 78 | 996.7 |
| 20260503214025 | 76 | 267 | 0.0 | 0.0 | 0.00 | 0.00 | 0.00 | 78 | 996.1 |
| 20260503213225 | 76 | 267 | 0.0 | 0.0 | 0.00 | 0.00 | 0.00 | 79 | 995.8 |
| 20260503212425 | 76 | 267 | 0.0 | 0.0 | 0.00 | 0.00 | 0.00 | 78 | 995.7 |
| 20260503211624 | 76 | 267 | 0.0 | 0.0 | 0.00 | 0.00 | 0.00 | 78 | 995.7 |
| 20260503210824 | 76 | 267 | 0.0 | 0.0 | 0.00 | 0.00 | 0.00 | 78 | 996.2 |
| 20260503210024 | 76 | 267 | 0.0 | 0.0 | 0.00 | 0.00 | 0.00 | 78 | 996.0 |
| 20260503205224 | 76 | 267 | 0.0 | 0.0 | 0.00 | 0.00 | 0.00 | 77 | 995.7 |
| 20260503204424 | 76 | 267 | 0.0 | 0.0 | 0.00 | 0.00 | 0.00 | 78 | 995.8 |
| 20260503203623 | 76 | 267 | 0.0 | 0.0 | 0.00 | 0.00 | 0.00 | 78 | 995.8 |
| 20260503202823 | 75 | 267 | 0.0 | 0.0 | 0.00 | 0.00 | 0.00 | 78 | 995.7 |
| 20260503202023 | 75 | 267 | 0.0 | 0.0 | 0.00 | 0.00 | 0.00 | 78 | 995.6 |
| 20260503201223 | 76 | 267 | 0.0 | 0.0 | 0.00 | 0.00 | 0.00 | 76 | 996.1 |
| 20260503200422 | 76 | 267 | 0.0 | 0.0 | 0.00 | 0.00 | 0.00 | 76 | 996.4 |